| time (UTC) | temp F | wind direction | speed MPH | gust MPH | rain 1hr in | rain 24hr in | rain mn in | humidity % | barometer mb |
| 20260503023012 | 39 | 212 | 0.0 | 2.0 | 0.00 | 0.00 | 0.00 | 75 | 1015.0 |
| 20260503021513 | 39 | 213 | 1.0 | 10.0 | 0.00 | 0.00 | 0.00 | 75 | 1015.1 |
| 20260503020010 | 39 | 165 | 0.0 | 7.0 | 0.00 | 0.00 | 0.00 | 75 | 1015.1 |
| 20260503014509 | 39 | 146 | 0.0 | 8.0 | 0.00 | 0.00 | 0.00 | 74 | 1015.1 |
| 20260503013009 | 39 | 185 | 0.0 | 6.0 | 0.00 | 0.00 | 0.00 | 74 | 1015.1 |
| 20260503011507 | 40 | 180 | 0.0 | 0.0 | 0.00 | 0.00 | 0.00 | 73 | 1015.0 |
| 20260503010008 | 40 | 177 | 0.0 | 3.0 | 0.00 | 0.00 | 0.00 | 72 | 1014.9 |
| 20260503004555 | 40 | 160 | 0.0 | 0.0 | 0.00 | 0.00 | 0.00 | 71 | 1014.8 |
| 20260503003104 | 40 | 170 | 0.0 | 1.0 | 0.00 | 0.00 | 0.00 | 71 | 1014.7 |
| 20260503001608 | 40 | 158 | 0.0 | 4.0 | 0.00 | 0.00 | 0.00 | 72 | 1014.7 |
| 20260503000054 | 40 | 209 | 0.0 | 5.0 | 0.00 | 0.00 | 0.00 | 71 | 1014.6 |
| 20260502234552 | 40 | 236 | 0.0 | 11.0 | 0.00 | 0.00 | 0.00 | 70 | 1014.6 |
| 20260502233051 | 40 | 188 | 2.0 | 7.0 | 0.00 | 0.00 | 0.00 | 70 | 1014.6 |
| 20260502231550 | 40 | 212 | 3.0 | 15.0 | 0.00 | 0.00 | 0.00 | 70 | 1014.4 |
| 20260502230050 | 40 | 174 | 3.0 | 10.0 | 0.00 | 0.00 | 0.00 | 70 | 1014.5 |
| 20260502224538 | 40 | 86 | 5.0 | 13.0 | 0.00 | 0.00 | 0.00 | 69 | 1014.5 |
| 20260502223038 | 41 | 228 | 2.0 | 15.0 | 0.00 | 0.00 | 0.00 | 68 | 1014.3 |
| 20260502221541 | 41 | 254 | 3.0 | 19.0 | 0.00 | 0.00 | 0.00 | 68 | 1014.3 |
| 20260502220037 | 41 | 179 | 1.0 | 15.0 | 0.00 | 0.02 | 0.00 | 68 | 1014.3 |
| 20260502214545 | 41 | 116 | 4.0 | 13.0 | 0.00 | 0.02 | 0.00 | 68 | 1014.3 |
| 20260502213036 | 41 | 240 | 5.0 | 16.0 | 0.00 | 0.02 | 0.00 | 68 | 1014.1 |
| 20260502211534 | 42 | 252 | 3.0 | 11.0 | 0.00 | 0.02 | 0.00 | 66 | 1014.1 |
| 20260502210033 | 41 | 236 | 2.0 | 16.0 | 0.00 | 0.04 | 0.00 | 67 | 1014.1 |
| 20260502204515 | 41 | 164 | 8.0 | 15.0 | 0.00 | 0.04 | 0.00 | 65 | 1014.2 |
| 20260502203017 | 41 | 252 | 8.0 | 16.0 | 0.00 | 0.04 | 0.00 | 65 | 1014.1 |
| 20260502201614 | 41 | 220 | 6.0 | 19.0 | 0.00 | 0.04 | 0.00 | 64 | 1014.2 |
| 20260502200056 | 42 | 281 | 10.0 | 20.0 | 0.00 | 0.06 | 0.00 | 62 | 1014.2 |
| 20260502194556 | 44 | 260 | 8.0 | 23.0 | 0.00 | 0.06 | 0.00 | 58 | 1014.2 |
| 20260502193045 | 45 | 207 | 11.0 | 20.0 | 0.00 | 0.06 | 0.00 | 57 | 1014.2 |
| 20260502191548 | 45 | 227 | 7.0 | 17.0 | 0.00 | 0.06 | 0.00 | 55 | 1014.0 |
| 20260502190046 | 47 | 215 | 6.0 | 17.0 | 0.00 | 0.08 | 0.00 | 56 | 1014.2 |
| 20260502184558 | 44 | 243 | 9.0 | 19.0 | 0.00 | 0.08 | 0.00 | 57 | 1014.2 |
| 20260502183045 | 44 | 245 | 10.0 | 18.0 | 0.00 | 0.08 | 0.00 | 56 | 1014.2 |
| 20260502181542 | 45 | 264 | 10.0 | 23.0 | 0.00 | 0.08 | 0.00 | 53 | 1014.1 |
| 20260502163053 | 46 | 174 | 5.0 | 22.0 | 0.00 | 0.09 | 0.00 | 52 | 1014.3 |
| 20260502161542 | 45 | 200 | 6.0 | 13.0 | 0.00 | 0.09 | 0.00 | 54 | 1014.3 |
| 20260502151525 | 43 | 218 | 6.0 | 23.0 | 0.00 | 0.09 | 0.00 | 57 | 1014.4 |
| 20260502123103 | 38 | 240 | 1.0 | 11.0 | 0.00 | 0.09 | 0.00 | 74 | 1015.1 |
| 20260502121553 | 37 | 195 | 0.0 | 7.0 | 0.00 | 0.09 | 0.00 | 78 | 1015.0 |
| 20260502114531 | 36 | 164 | 2.0 | 11.0 | 0.00 | 0.09 | 0.00 | 84 | 1015.2 |
| 20260502113017 | 35 | 191 | 4.0 | 15.0 | 0.00 | 0.09 | 0.00 | 85 | 1015.2 |
| 20260502111515 | 34 | 238 | 2.0 | 12.0 | 0.00 | 0.09 | 0.00 | 87 | 1014.9 |
| 20260502110012 | 0 | 0.0 | 0.0 | 0.00 | 0.09 | 0.00 | 1015.0 | ||
| 20260502104507 | 0 | 0.0 | 0.0 | 0.00 | 0.09 | 0.00 | 1015.0 | ||
| 20260502103007 | 0 | 0.0 | 0.0 | 0.00 | 0.09 | 0.00 | 1014.8 | ||
| 20260502101634 | 0 | 0.0 | 0.0 | 0.00 | 0.09 | 0.00 | 1014.7 | ||
| 20260502100117 | 0 | 0.0 | 0.0 | 0.00 | 0.09 | 0.00 | 1014.6 | ||
| 20260502071506 | 35 | 206 | 0.0 | 0.0 | 0.00 | 0.09 | 0.00 | 85 | 1013.6 |
| 20260502070056 | 36 | 240 | 0.0 | 6.0 | 0.00 | 0.09 | 0.00 | 84 | 1013.5 |
| 20260502064552 | 36 | 223 | 0.0 | 10.0 | 0.00 | 0.09 | 0.00 | 83 | 1013.4 |
| 20260502063051 | 36 | 188 | 0.0 | 6.0 | 0.00 | 0.09 | 0.00 | 83 | 1013.6 |
| 20260502061548 | 37 | 215 | 2.0 | 17.0 | 0.00 | 0.09 | 0.00 | 84 | 1013.6 |
| 20260502060052 | 38 | 230 | 0.0 | 10.0 | 0.00 | 0.09 | 0.00 | 85 | 1013.7 |
| 20260502054544 | 38 | 46 | 2.0 | 7.0 | 0.00 | 0.09 | 0.00 | 85 | 1013.6 |
| 20260502053044 | 38 | 176 | 0.0 | 2.0 | 0.00 | 0.09 | 0.00 | 84 | 1013.5 |
| 20260502051540 | 39 | 158 | 0.0 | 8.0 | 0.00 | 0.09 | 0.00 | 83 | 1013.3 |
| 20260502050016 | 39 | 227 | 1.0 | 12.0 | 0.00 | 0.09 | 0.09 | 84 | 1013.3 |
| 20260502044515 | 39 | 239 | 3.0 | 10.0 | 0.00 | 0.09 | 0.09 | 85 | 1013.1 |
| 20260502043107 | 39 | 204 | 1.0 | 10.0 | 0.00 | 0.09 | 0.09 | 85 | 1013.2 |
| 20260502041557 | 40 | 225 | 0.0 | 11.0 | 0.00 | 0.09 | 0.09 | 85 | 1013.1 |
| 20260502040043 | 40 | 184 | 1.0 | 6.0 | 0.00 | 0.09 | 0.09 | 85 | 1013.2 |
| 20260502034538 | 40 | 81 | 0.0 | 8.0 | 0.00 | 0.09 | 0.09 | 85 | 1013.0 |
| 20260502033020 | 40 | 163 | 3.0 | 12.0 | 0.00 | 0.09 | 0.09 | 85 | 1013.0 |
| 20260502031520 | 40 | 241 | 1.0 | 9.0 | 0.00 | 0.09 | 0.09 | 85 | 1012.9 |
| 20260502030001 | 40 | 186 | 2.0 | 7.0 | 0.00 | 0.09 | 0.09 | 87 | 1012.9 |
| 20260502024505 | 41 | 168 | 2.0 | 10.0 | 0.00 | 0.09 | 0.09 | 89 | 1013.0 |